Date,TemperatureHighF,TemperatureAvgF,TemperatureLowF,DewpointHighF,DewpointAvgF,DewpointLowF,HumidityHigh,HumidityAvg,HumidityLow,PressureMaxIn,PressureMinIn,WindSpeedMaxMPH,WindSpeedAvgMPH,GustSpeedMaxMPH,PrecipitationSumIn
2012-1-1,58.4,51.8,46.3,-99.9,-99.9,-99.9,0,0,100,30.15,30.06,15,1,20,0.00
2012-1-2,56.6,50.1,44.3,-99.9,-99.9,-99.9,0,0,100,30.23,30.09,20,1,25,0.00
2012-1-3,59.7,51.0,44.6,-99.9,-99.9,-99.9,0,0,100,30.29,30.20,12,0,20,0.00
2012-1-4,63.6,54.0,47.7,-99.9,-99.9,-99.9,0,0,100,30.33,30.22,16,0,17,0.00
2012-1-5,62.3,52.2,44.8,-99.9,-99.9,-99.9,0,0,100,30.25,30.09,18,2,22,0.00
2012-1-6,57.1,48.8,42.5,-99.9,-99.9,-99.9,0,0,100,30.11,30.03,18,0,20,0.00
2012-1-7,63.5,52.1,41.8,-99.9,-99.9,-99.9,0,0,100,30.17,30.06,31,1,31,0.00
2012-1-8,61.3,53.8,47.6,-99.9,-99.9,-99.9,0,0,100,30.18,30.10,16,0,20,0.00
2012-1-9,61.4,51.0,44.0,-99.9,-99.9,-99.9,0,0,100,30.18,30.08,13,0,17,0.00
2012-1-10,59.9,50.7,42.4,-99.9,-99.9,-99.9,0,0,100,30.10,30.01,16,0,24,0.00
2012-1-11,62.4,52.7,43.8,-99.9,-99.9,-99.9,0,0,100,30.07,29.96,14,0,24,0.00
2012-1-12,61.9,53.0,47.0,-99.9,-99.9,-99.9,0,0,100,30.07,29.98,13,0,19,0.00
2012-1-13,62.4,52.8,46.7,-99.9,-99.9,-99.9,0,0,100,30.17,30.06,15,0,23,0.00
2012-1-14,62.5,51.6,44.3,-99.9,-99.9,-99.9,0,0,100,30.14,30.01,0,0,14,0.00
2012-1-15,51.8,46.2,40.6,-99.9,-99.9,-99.9,0,0,100,30.08,29.94,30,4,40,0.00
2012-1-16,48.3,40.6,34.7,-99.9,-99.9,-99.9,0,0,100,30.24,30.07,23,1,28,0.00
2012-1-17,48.8,40.0,31.1,-99.9,-99.9,-99.9,0,0,100,30.32,30.23,17,0,21,0.00
2012-1-18,51.9,42.9,34.5,-99.9,-99.9,-99.9,0,0,100,30.33,30.17,11,0,15,0.00
2012-1-19,49.2,45.1,39.1,-99.9,-99.9,-99.9,0,0,100,30.17,29.96,16,0,23,0.00
2012-1-20,54.9,52.5,48.7,-99.9,-99.9,-99.9,0,0,100,29.96,29.63,27,2,37,0.00
2012-1-21,53.0,47.7,42.2,-99.9,-99.9,-99.9,0,0,100,30.08,29.64,38,8,70,0.00
2012-1-22,48.7,46.0,43.0,-99.9,-99.9,-99.9,0,0,100,30.09,29.72,37,2,37,0.00
2012-1-23,51.9,48.8,46.2,-99.9,-99.9,-99.9,0,0,100,30.08,29.57,26,2,40,0.00
2012-1-24,56.1,49.3,44.4,-99.9,-99.9,-99.9,0,0,100,30.35,30.08,16,0,19,0.00
2012-1-25,61.1,53.4,46.0,-99.9,-99.9,-99.9,0,0,100,30.39,30.27,14,0,20,0.00
2012-1-26,60.7,55.9,51.4,-99.9,-99.9,-99.9,0,0,100,30.28,30.17,0,0,20,0.00
2012-1-27,61.9,52.2,45.1,-99.9,-99.9,-99.9,0,0,100,30.22,30.14,0,0,0,0.00
2012-1-28,60.1,50.5,43.4,-99.9,-99.9,-99.9,0,0,100,30.28,30.18,12,0,22,0.00
2012-1-29,61.3,50.9,43.8,-99.9,-99.9,-99.9,0,0,100,30.22,30.06,16,0,21,0.00
2012-1-30,59.1,51.5,46.7,-99.9,-99.9,-99.9,0,0,100,30.06,29.94,0,0,0,0.00
2012-1-31,57.7,50.4,45.3,-99.9,-99.9,-99.9,0,0,100,30.11,29.99,14,0,14,0.00
2012-2-1,56.4,50.5,45.5,-99.9,-99.9,-99.9,0,0,100,30.19,30.10,22,1,24,0.00
2012-2-2,64.1,51.5,43.8,-99.9,-99.9,-99.9,0,0,100,30.18,29.91,9,0,15,0.00
2012-2-3,58.4,50.9,43.6,-99.9,-99.9,-99.9,0,0,100,30.03,29.93,16,0,24,0.00
2012-2-4,61.1,50.3,42.5,-99.9,-99.9,-99.9,0,0,100,30.06,29.97,14,0,19,0.00
2012-2-5,62.1,52.0,45.5,-99.9,-99.9,-99.9,0,0,100,30.10,29.93,14,0,20,0.00
2012-2-6,59.9,52.0,45.0,-99.9,-99.9,-99.9,0,0,100,29.93,29.70,17,0,17,0.00
2012-2-7,53.6,50.9,48.6,-99.9,-99.9,-99.9,0,0,100,30.05,29.69,9,0,21,0.00
2012-2-8,61.5,53.1,45.9,-99.9,-99.9,-99.9,0,0,100,30.19,30.04,15,0,22,0.00
2012-2-9,65.4,54.6,46.3,-99.9,-99.9,-99.9,0,0,100,30.20,30.08,17,0,19,0.00
2012-2-10,59.5,53.1,47.5,-99.9,-99.9,-99.9,0,0,100,30.12,29.99,14,0,22,0.00
2012-2-11,58.6,51.8,48.4,-99.9,-99.9,-99.9,0,0,100,29.99,29.92,15,0,19,0.00
2012-2-12,56.6,49.6,44.9,-99.9,-99.9,-99.9,0,0,100,29.98,29.88,14,0,23,0.00
2012-2-13,50.6,46.2,43.5,-99.9,-99.9,-99.9,0,0,100,29.92,29.81,36,6,56,0.00
2012-2-14,56.2,47.5,41.0,-99.9,-99.9,-99.9,0,0,100,30.03,29.90,21,2,25,0.00
2012-2-15,55.8,46.9,38.8,-99.9,-99.9,-99.9,0,0,100,30.09,29.96,44,2,50,0.00
2012-2-16,62.2,51.5,42.6,-99.9,-99.9,-99.9,0,0,100,30.19,30.09,13,0,22,0.00
2012-2-17,62.5,51.5,42.5,-99.9,-99.9,-99.9,0,0,100,30.18,30.10,15,1,26,0.00
2012-2-18,57.5,51.0,44.4,-99.9,-99.9,-99.9,0,0,100,30.12,30.03,31,3,34,0.00
2012-2-19,55.8,46.9,41.2,-99.9,-99.9,-99.9,0,0,100,30.12,29.98,21,0,28,0.00
2012-2-20,57.3,49.8,45.4,-99.9,-99.9,-99.9,0,0,100,30.15,30.00,0,0,13,0.00
2012-2-21,63.8,53.5,44.3,-99.9,-99.9,-99.9,0,0,100,30.24,30.13,19,1,27,0.00
2012-2-22,72.2,59.5,51.0,-99.9,-99.9,-99.9,0,0,100,30.22,30.04,24,3,36,0.00
2012-2-23,72.5,60.4,50.1,-99.9,-99.9,-99.9,0,0,100,30.04,29.92,24,3,29,0.00
2012-2-24,70.4,58.9,51.0,-99.9,-99.9,-99.9,0,0,100,30.12,29.95,23,1,38,0.00
2012-2-25,58.1,49.5,43.9,-99.9,-99.9,-99.9,0,0,100,30.27,30.12,33,6,42,0.00
2012-2-26,55.0,45.2,36.9,-99.9,-99.9,-99.9,0,0,100,30.12,29.77,21,1,26,0.00
2012-2-27,55.5,44.8,37.4,-99.9,-99.9,-99.9,0,0,100,29.88,29.72,14,0,15,0.00
2012-2-28,52.3,45.7,38.9,-99.9,-99.9,-99.9,0,0,100,30.14,29.88,34,3,39,0.00
2012-2-29,51.5,47.2,43.1,-99.9,-99.9,-99.9,0,0,100,30.17,29.95,19,2,39,0.00
2012-3-1,53.3,46.7,41.6,-99.9,-99.9,-99.9,0,0,100,30.17,30.10,24,2,34,0.00
2012-3-2,60.7,48.7,38.2,-99.9,-99.9,-99.9,0,0,100,30.28,30.17,13,0,24,0.00
2012-3-3,66.7,53.4,43.2,-99.9,-99.9,-99.9,0,0,100,30.29,30.19,12,0,16,0.00
2012-3-4,70.3,56.9,46.8,-99.9,-99.9,-99.9,0,0,100,30.18,30.02,15,1,23,0.00
2012-3-5,68.3,55.4,47.9,-99.9,-99.9,-99.9,0,0,100,30.04,29.93,17,1,23,0.00
2012-3-6,55.6,48.2,43.0,-99.9,-99.9,-99.9,0,0,100,29.98,29.85,44,12,58,0.00
2012-3-7,62.7,49.3,39.8,-99.9,-99.9,-99.9,0,0,100,30.11,29.97,17,0,20,0.00
2012-3-8,66.4,52.7,41.7,-99.9,-99.9,-99.9,0,0,100,30.27,30.11,12,0,17,0.00
2012-3-9,69.7,54.8,43.5,-99.9,-99.9,-99.9,0,0,100,30.27,30.07,16,0,20,0.00
2012-3-10,58.1,49.6,42.3,-99.9,-99.9,-99.9,0,0,100,30.07,29.92,22,1,31,0.00
2012-3-11,57.8,49.8,44.4,-99.9,-99.9,-99.9,0,0,100,29.98,29.91,26,2,26,0.00
2012-3-12,59.4,49.7,40.9,-99.9,-99.9,-99.9,0,0,100,29.97,29.86,25,2,35,0.00
2012-3-13,52.0,51.0,50.1,-99.9,-99.9,-99.9,0,0,100,29.92,29.80,26,5,42,0.00
2012-3-14,55.4,53.1,51.1,-99.9,-99.9,-99.9,0,0,100,30.06,29.88,17,1,27,0.00
2012-3-15,57.5,54.4,52.9,-99.9,-99.9,-99.9,0,0,100,30.08,29.98,16,0,22,0.00
2012-3-16,55.6,52.4,45.7,-99.9,-99.9,-99.9,0,0,100,29.99,29.66,34,2,49,0.00
2012-3-17,48.6,44.2,40.0,-99.9,-99.9,-99.9,0,0,100,29.66,29.46,25,4,46,0.00
2012-3-18,49.7,44.1,41.0,-99.9,-99.9,-99.9,0,0,100,29.85,29.55,52,16,66,0.00
2012-3-19,53.9,45.8,37.4,-99.9,-99.9,-99.9,0,0,100,30.01,29.85,19,1,30,0.00
2012-3-20,61.1,53.0,46.4,-99.9,-99.9,-99.9,0,0,100,30.13,30.01,16,1,18,0.00
2012-3-21,66.8,55.6,47.3,-99.9,-99.9,-99.9,0,0,100,30.12,29.93,18,1,22,0.00
2012-3-22,59.1,53.0,44.4,-99.9,-99.9,-99.9,0,0,100,29.95,29.87,22,2,32,0.00
2012-3-23,59.5,49.3,40.4,-99.9,-99.9,-99.9,0,0,100,30.00,29.81,24,1,24,0.00
2012-3-24,51.0,47.2,43.6,-99.9,-99.9,-99.9,0,0,100,29.83,29.73,21,2,36,0.00
2012-3-25,54.6,46.5,40.4,-99.9,-99.9,-99.9,0,0,100,29.81,29.69,12,0,18,0.00
2012-3-26,57.2,48.4,41.0,-99.9,-99.9,-99.9,0,0,100,30.02,29.82,22,1,22,0.00
2012-3-27,55.6,50.9,47.9,-99.9,-99.9,-99.9,0,0,100,29.95,29.79,31,6,42,0.00
2012-3-28,60.2,54.0,48.8,-99.9,-99.9,-99.9,0,0,100,30.05,29.87,22,1,27,0.00
2012-3-29,60.5,53.2,46.8,-99.9,-99.9,-99.9,0,0,100,30.06,30.01,20,1,23,0.00
2012-3-30,62.5,56.0,51.7,-99.9,-99.9,-99.9,0,0,100,30.04,29.84,16,1,24,0.00
2012-3-31,56.6,51.9,46.2,-99.9,-99.9,-99.9,0,0,100,29.94,29.63,26,5,40,0.00
2012-4-1,58.0,49.4,43.1,-99.9,-99.9,-99.9,0,0,100,30.22,29.95,35,9,49,0.00
2012-4-2,62.6,52.1,42.5,-99.9,-99.9,-99.9,0,0,100,30.18,29.98,23,2,24,0.00
2012-4-3,63.2,52.9,46.3,-99.9,-99.9,-99.9,0,0,100,30.02,29.94,28,4,55,0.00
2012-4-4,56.6,48.7,42.4,-99.9,-99.9,-99.9,0,0,100,30.13,30.03,33,8,46,0.00
2012-4-5,56.0,46.4,40.1,-99.9,-99.9,-99.9,0,0,100,30.09,30.01,27,6,38,0.00
2012-4-6,60.0,48.8,38.2,-99.9,-99.9,-99.9,0,0,100,30.20,30.09,25,1,27,0.00
2012-4-7,65.2,51.9,39.5,-99.9,-99.9,-99.9,0,0,100,30.09,29.97,20,1,22,0.00
2012-4-8,66.2,51.9,41.6,-99.9,-99.9,-99.9,0,0,100,30.00,29.93,17,0,29,0.00
2012-4-9,68.4,53.8,44.1,-99.9,-99.9,-99.9,0,0,100,29.93,29.77,0,0,0,0.00
2012-4-10,55.1,52.6,51.0,-99.9,-99.9,-99.9,0,0,100,29.82,29.74,0,0,0,0.00
2012-4-11,57.0,52.3,48.7,-99.9,-99.9,-99.9,0,0,100,29.91,29.72,0,0,0,0.00
2012-4-12,57.3,50.7,46.6,-99.9,-99.9,-99.9,0,0,100,29.96,29.73,25,1,42,0.00
2012-4-13,53.4,48.0,44.5,-99.9,-99.9,-99.9,0,0,100,29.79,29.62,31,6,44,0.00
2012-4-14,62.6,50.9,43.6,-99.9,-99.9,-99.9,0,0,100,30.06,29.78,26,4,36,0.00
2012-4-15,67.2,56.2,48.2,-99.9,-99.9,-99.9,0,0,100,30.15,30.06,12,0,21,0.00
2012-4-16,65.1,55.7,48.3,-99.9,-99.9,-99.9,0,0,100,30.17,30.10,15,1,18,0.00
2012-4-17,65.8,56.9,51.0,-99.9,-99.9,-99.9,0,0,100,30.13,30.04,19,1,21,0.00
2012-4-18,68.1,57.9,49.6,-99.9,-99.9,-99.9,0,0,100,30.11,30.02,24,3,30,0.00
2012-4-19,74.7,63.1,54.3,-99.9,-99.9,-99.9,0,0,100,30.12,30.04,23,3,30,0.00
2012-4-20,84.1,70.1,57.8,-99.9,-99.9,-99.9,0,0,100,30.05,29.96,16,1,26,0.00
2012-4-21,87.7,73.4,60.0,-99.9,-99.9,-99.9,0,0,100,29.97,29.84,19,1,23,0.00
2012-4-22,75.8,66.6,55.9,-99.9,-99.9,-99.9,0,0,100,29.88,29.82,17,1,22,0.00
2012-4-23,66.7,58.8,54.3,-99.9,-99.9,-99.9,0,0,100,29.95,29.83,21,2,36,0.00
2012-4-24,73.3,61.2,57.1,-99.9,-99.9,-99.9,0,0,100,29.99,29.91,16,1,24,0.00
2012-4-25,68.5,59.8,54.4,-99.9,-99.9,-99.9,0,0,100,29.97,29.73,15,1,30,0.00
2012-4-26,60.3,55.1,49.8,-99.9,-99.9,-99.9,0,0,100,30.13,29.72,33,4,36,0.00
2012-4-27,66.8,56.1,46.2,-99.9,-99.9,-99.9,0,0,100,30.16,30.08,21,2,26,0.00
2012-4-28,75.7,61.7,50.5,-99.9,-99.9,-99.9,0,0,100,30.08,29.85,18,2,27,0.00
2012-4-29,79.7,64.7,53.2,-99.9,-99.9,-99.9,0,0,100,29.89,29.81,14,1,19,0.00
2012-4-30,73.5,65.4,57.2,-99.9,-99.9,-99.9,0,0,100,29.92,29.85,42,3,42,0.00
2012-5-1,65.8,59.0,51.9,-99.9,-99.9,-99.9,0,0,100,29.88,29.83,16,1,24,0.00
2012-5-2,60.0,54.4,49.3,-99.9,-99.9,-99.9,0,0,100,29.91,29.80,19,3,32,0.00
2012-5-3,61.1,55.0,51.0,-99.9,-99.9,-99.9,0,0,100,30.03,29.87,23,1,25,0.00
2012-5-4,62.9,56.0,50.5,-99.9,-99.9,-99.9,0,0,100,30.14,30.01,19,2,30,0.00
2012-5-5,71.9,60.0,49.8,-99.9,-99.9,-99.9,0,0,100,30.15,30.01,20,2,33,0.00
2012-5-6,78.1,67.0,57.0,-99.9,-99.9,-99.9,0,0,100,30.03,29.98,21,1,28,0.00
2012-5-7,81.4,70.4,58.7,-99.9,-99.9,-99.9,0,0,100,30.00,29.92,17,1,22,0.00
2012-5-8,83.7,71.7,59.8,-99.9,-99.9,-99.9,0,0,100,29.93,29.88,21,1,22,0.00
2012-5-9,69.5,65.5,61.6,-99.9,-99.9,-99.9,0,0,100,29.90,29.86,12,1,17,0.00
2012-5-10,77.5,71.2,62.0,-99.9,-99.9,-99.9,0,0,100,29.87,29.83,18,1,23,0.00
2012-5-11,82.4,69.7,58.7,-99.9,-99.9,-99.9,0,0,100,29.93,29.81,16,1,27,0.00
2012-5-12,78.9,66.5,57.1,-99.9,-99.9,-99.9,0,0,100,29.99,29.91,18,1,20,0.00
2012-5-13,62.9,58.1,54.0,-99.9,-99.9,-99.9,0,0,100,30.02,29.96,25,1,26,0.00
2012-5-14,66.8,59.9,55.2,-99.9,-99.9,-99.9,0,0,100,30.02,29.98,22,2,28,0.00
2012-5-15,69.4,60.6,54.0,-99.9,-99.9,-99.9,0,0,100,29.99,29.94,9,0,19,0.00
2012-5-16,71.1,60.7,53.6,-99.9,-99.9,-99.9,0,0,100,29.97,29.88,16,1,18,0.00
2012-5-17,65.8,58.6,54.5,-99.9,-99.9,-99.9,0,0,100,29.88,29.79,22,3,30,0.00
2012-5-18,71.9,61.5,51.3,-99.9,-99.9,-99.9,0,0,100,29.92,29.83,20,2,25,0.00
2012-5-19,75.1,64.2,53.0,-99.9,-99.9,-99.9,0,0,100,29.93,29.85,17,2,24,0.00
2012-5-20,79.3,67.4,57.0,-99.9,-99.9,-99.9,0,0,100,29.95,29.89,18,3,25,0.00
2012-5-21,68.2,62.4,55.6,-99.9,-99.9,-99.9,0,0,100,30.05,29.93,21,2,28,0.00
2012-5-22,72.7,64.3,57.9,-99.9,-99.9,-99.9,0,0,100,30.07,29.99,31,5,36,0.00
2012-5-23,71.1,63.2,56.4,-99.9,-99.9,-99.9,0,0,100,29.99,29.86,28,6,32,0.00
2012-5-24,68.3,61.2,54.7,-99.9,-99.9,-99.9,0,0,100,29.87,29.68,28,6,41,0.00
2012-5-25,62.8,55.9,49.1,-99.9,-99.9,-99.9,0,0,100,29.78,29.64,34,7,50,0.00
2012-5-26,62.9,56.8,53.0,-99.9,-99.9,-99.9,0,0,100,30.01,29.76,24,3,28,0.00
2012-5-27,66.1,58.0,52.8,-99.9,-99.9,-99.9,0,0,100,30.08,30.01,19,1,20,0.00
2012-5-28,61.9,57.3,53.5,-99.9,-99.9,-99.9,0,0,100,30.01,29.96,20,2,25,0.00
2012-5-29,70.0,59.6,51.0,-99.9,-99.9,-99.9,0,0,100,30.01,29.94,23,1,26,0.00
2012-5-30,78.3,65.3,53.8,-99.9,-99.9,-99.9,0,0,100,30.04,29.97,18,2,23,0.00
2012-5-31,84.9,71.3,56.8,-99.9,-99.9,-99.9,0,0,100,29.98,29.82,22,2,26,0.00
2012-6-1,83.6,73.2,63.6,-99.9,-99.9,-99.9,0,0,100,29.82,29.76,21,3,25,0.00
2012-6-2,74.1,65.9,57.9,-99.9,-99.9,-99.9,0,0,100,29.91,29.78,24,5,32,0.00
2012-6-3,74.3,64.5,55.2,-99.9,-99.9,-99.9,0,0,100,29.90,29.85,18,1,22,0.00
2012-6-4,63.1,58.2,52.4,-99.9,-99.9,-99.9,0,0,100,30.05,29.85,41,7,44,0.00
2012-6-5,65.1,56.6,50.1,-99.9,-99.9,-99.9,0,0,100,30.11,30.03,28,7,34,0.00
2012-6-6,69.4,60.8,52.8,-99.9,-99.9,-99.9,0,0,100,30.06,29.92,20,2,24,0.00
2012-6-7,73.1,63.7,53.8,-99.9,-99.9,-99.9,0,0,100,29.96,29.90,28,3,34,0.00
2012-6-8,71.1,63.7,54.9,-99.9,-99.9,-99.9,0,0,100,29.94,29.88,18,2,27,0.00
2012-6-9,76.5,64.6,54.5,-99.9,-99.9,-99.9,0,0,100,29.94,29.85,24,2,35,0.00
2012-6-10,83.5,72.9,61.3,-99.9,-99.9,-99.9,0,0,100,29.90,29.82,18,1,25,0.00
2012-6-11,85.9,76.1,65.3,-99.9,-99.9,-99.9,0,0,100,29.94,29.86,15,1,22,0.00
2012-6-12,82.7,72.2,62.2,-99.9,-99.9,-99.9,0,0,100,29.94,29.88,23,4,41,0.00
2012-6-13,78.7,66.7,56.1,-99.9,-99.9,-99.9,0,0,100,29.88,29.74,24,2,27,0.00
2012-6-14,77.9,66.8,57.3,-99.9,-99.9,-99.9,0,0,100,29.77,29.72,20,3,27,0.00
2012-6-15,81.0,67.4,55.4,-99.9,-99.9,-99.9,0,0,100,29.80,29.72,18,1,24,0.00
2012-6-16,93.4,80.9,68.2,-99.9,-99.9,-99.9,0,0,100,29.83,29.78,18,1,25,0.00
2012-6-17,83.3,73.5,61.6,-99.9,-99.9,-99.9,0,0,100,29.86,29.76,19,1,22,0.00
2012-6-18,69.4,62.4,57.3,-99.9,-99.9,-99.9,0,0,100,29.85,29.78,23,3,29,0.00
2012-6-19,79.4,66.1,54.5,-99.9,-99.9,-99.9,0,0,100,29.87,29.77,22,2,28,0.00
2012-6-20,83.6,73.2,63.4,-99.9,-99.9,-99.9,0,0,100,29.81,29.78,16,1,22,0.00
2012-6-21,67.4,58.1,53.4,-99.9,-99.9,-99.9,0,0,100,29.89,29.74,25,5,36,0.00
2012-6-22,65.1,57.6,52.3,-99.9,-99.9,-99.9,0,0,100,29.91,29.81,21,2,35,0.00
2012-6-23,65.4,59.4,53.6,-99.9,-99.9,-99.9,0,0,100,29.90,29.79,29,4,30,0.00
2012-6-24,66.4,59.8,52.2,-99.9,-99.9,-99.9,0,0,100,29.99,29.89,23,2,36,0.00
2012-6-25,66.3,60.7,55.1,-99.9,-99.9,-99.9,0,0,100,30.04,29.98,23,4,32,0.00
2012-6-26,73.2,63.3,53.3,-99.9,-99.9,-99.9,0,0,100,30.01,29.86,21,3,26,0.00
2012-6-27,76.7,66.4,57.0,-99.9,-99.9,-99.9,0,0,100,29.91,29.83,19,1,28,0.00
2012-6-28,76.0,67.3,59.3,-99.9,-99.9,-99.9,0,0,100,30.05,29.91,22,2,29,0.00
2012-6-29,70.5,64.4,59.7,-99.9,-99.9,-99.9,0,0,100,30.05,29.98,15,1,24,0.00
2012-6-30,73.2,66.5,59.7,-99.9,-99.9,-99.9,0,0,100,29.99,29.92,15,0,18,0.00
2012-7-1,70.9,65.3,61.8,-99.9,-99.9,-99.9,0,0,100,29.93,29.84,18,1,22,0.00
2012-7-2,72.1,65.1,59.4,-99.9,-99.9,-99.9,0,0,100,29.85,29.80,26,3,29,0.00
2012-7-3,77.3,65.9,56.3,-99.9,-99.9,-99.9,0,0,100,29.86,29.79,19,1,22,0.00
2012-7-4,72.9,65.6,57.4,-99.9,-99.9,-99.9,0,0,100,29.83,29.76,24,2,34,0.00
2012-7-5,69.1,61.1,55.8,-99.9,-99.9,-99.9,0,0,100,29.93,29.83,31,3,32,0.00
2012-7-6,77.5,66.2,56.0,-99.9,-99.9,-99.9,0,0,100,29.97,29.91,20,1,30,0.00
2012-7-7,85.7,73.1,61.1,-99.9,-99.9,-99.9,0,0,100,29.95,29.91,18,2,22,0.00
2012-7-8,79.1,69.0,59.6,-99.9,-99.9,-99.9,0,0,100,29.97,29.90,14,0,16,0.00
2012-7-9,79.0,66.9,58.0,-99.9,-99.9,-99.9,0,0,100,29.98,29.91,16,1,20,0.00
2012-7-10,87.9,72.7,57.9,-99.9,-99.9,-99.9,0,0,100,29.91,29.81,17,1,26,0.00
2012-7-11,92.7,78.9,66.3,-99.9,-99.9,-99.9,0,0,100,29.85,29.78,25,1,25,0.00
2012-7-12,84.6,75.1,66.2,-99.9,-99.9,-99.9,0,0,100,29.81,29.76,17,0,20,0.00
2012-7-13,66.1,61.7,57.6,-99.9,-99.9,-99.9,0,0,100,29.85,29.76,30,5,42,0.00
2012-7-14,71.4,62.3,55.2,-99.9,-99.9,-99.9,0,0,100,29.89,29.82,19,2,39,0.00
2012-7-15,73.7,64.8,57.5,-99.9,-99.9,-99.9,0,0,100,29.86,29.80,18,1,19,0.00
2012-7-16,62.9,60.1,57.9,-99.9,-99.9,-99.9,0,0,100,29.87,29.75,31,3,38,0.00
2012-7-17,65.3,60.3,56.9,-99.9,-99.9,-99.9,0,0,100,29.96,29.84,26,2,30,0.00
2012-7-18,69.5,62.3,57.4,-99.9,-99.9,-99.9,0,0,100,29.97,29.92,15,1,17,0.00
2012-7-19,70.7,63.2,57.8,-99.9,-99.9,-99.9,0,0,100,30.01,29.91,20,2,25,0.00
2012-7-20,82.9,69.4,59.1,-99.9,-99.9,-99.9,0,0,100,30.04,29.96,22,3,28,0.00
2012-7-21,89.1,76.4,65.9,-99.9,-99.9,-99.9,0,0,100,29.96,29.85,19,3,25,0.00
2012-7-22,83.8,73.6,63.5,-99.9,-99.9,-99.9,0,0,100,29.86,29.81,20,1,21,0.00
2012-7-23,71.2,67.2,62.5,-99.9,-99.9,-99.9,0,0,100,29.89,29.82,20,3,29,0.00
2012-7-24,71.7,64.1,59.1,-99.9,-99.9,-99.9,0,0,100,29.92,29.87,16,1,24,0.00
2012-7-25,70.4,63.1,58.7,-99.9,-99.9,-99.9,0,0,100,29.95,29.90,17,1,26,0.00
2012-7-26,69.3,62.0,56.6,-99.9,-99.9,-99.9,0,0,100,29.93,29.87,15,1,26,0.00
2012-7-27,72.1,63.2,57.1,-99.9,-99.9,-99.9,0,0,100,29.97,29.90,14,0,24,0.00
2012-7-28,76.4,65.2,57.9,-99.9,-99.9,-99.9,0,0,100,29.99,29.93,18,2,28,0.00
2012-7-29,76.9,65.2,56.9,-99.9,-99.9,-99.9,0,0,100,29.99,29.93,18,1,21,0.00
2012-7-30,87.2,72.2,59.5,-99.9,-99.9,-99.9,0,0,100,29.93,29.86,18,1,24,0.00
2012-7-31,84.7,74.4,67.9,-99.9,-99.9,-99.9,0,0,100,29.94,29.87,14,1,18,0.00
2012-8-1,82.2,69.9,61.4,-99.9,-99.9,-99.9,0,0,100,29.99,29.91,16,1,18,0.00
2012-8-2,81.7,70.0,60.6,-99.9,-99.9,-99.9,0,0,100,29.94,29.85,22,1,22,0.00
2012-8-3,76.7,65.6,58.7,-99.9,-99.9,-99.9,0,0,100,29.84,29.78,15,0,17,0.00
2012-8-4,65.8,61.4,57.9,-99.9,-99.9,-99.9,0,0,100,29.93,29.78,20,1,27,0.00
2012-8-5,71.2,63.7,59.5,-99.9,-99.9,-99.9,0,0,100,30.03,29.90,12,0,17,0.00
2012-8-6,78.7,66.5,56.6,-99.9,-99.9,-99.9,0,0,100,30.06,30.01,24,2,24,0.00
2012-8-7,80.7,70.2,61.9,-99.9,-99.9,-99.9,0,0,100,30.01,29.94,16,2,22,0.00
2012-8-8,86.9,72.6,60.1,-99.9,-99.9,-99.9,0,0,100,29.96,29.90,14,1,21,0.00
2012-8-9,91.0,77.6,65.7,-99.9,-99.9,-99.9,0,0,100,29.91,29.82,17,2,23,0.00
2012-8-10,90.5,78.0,68.6,-99.9,-99.9,-99.9,0,0,100,29.83,29.72,17,1,20,0.00
2012-8-11,89.8,75.5,63.5,-99.9,-99.9,-99.9,0,0,100,29.77,29.69,14,1,18,0.00
2012-8-12,83.5,72.5,61.6,-99.9,-99.9,-99.9,0,0,100,29.80,29.74,9,0,16,0.00
2012-8-13,88.1,76.4,66.4,-99.9,-99.9,-99.9,0,0,100,29.80,29.75,14,1,21,0.00
2012-8-14,77.3,71.7,65.9,-99.9,-99.9,-99.9,0,0,100,29.78,29.72,16,1,19,0.00
2012-8-15,73.2,66.0,60.7,-99.9,-99.9,-99.9,0,0,100,29.86,29.74,14,1,16,0.00
2012-8-16,78.7,67.2,59.9,-99.9,-99.9,-99.9,0,0,100,29.91,29.84,18,1,22,0.00
2012-8-17,79.1,67.9,58.7,-99.9,-99.9,-99.9,0,0,100,29.94,29.89,16,1,20,0.00
2012-8-18,83.4,72.1,64.7,-99.9,-99.9,-99.9,0,0,100,29.93,29.86,20,2,27,0.00
2012-8-19,76.6,67.1,58.8,-99.9,-99.9,-99.9,0,0,100,29.91,29.85,16,0,18,0.00
2012-8-20,77.7,66.3,58.3,-99.9,-99.9,-99.9,0,0,100,29.96,29.82,14,0,15,0.00
2012-8-21,75.8,65.9,58.4,-99.9,-99.9,-99.9,0,0,100,29.97,29.81,18,1,21,0.00
2012-8-22,73.8,64.7,58.2,-99.9,-99.9,-99.9,0,0,100,29.98,29.82,16,1,20,0.00
2012-8-23,74.1,64.9,59.7,-99.9,-99.9,-99.9,0,0,100,29.90,29.82,20,1,22,0.00
2012-8-24,75.2,65.8,59.2,-99.9,-99.9,-99.9,0,0,100,29.85,29.80,21,2,30,0.00
2012-8-25,68.8,61.3,57.4,-99.9,-99.9,-99.9,0,0,100,29.82,29.77,27,2,37,0.00
2012-8-26,67.3,60.6,56.1,-99.9,-99.9,-99.9,0,0,100,29.94,29.79,21,2,38,0.00
2012-8-27,79.7,66.5,57.0,-99.9,-99.9,-99.9,0,0,100,30.00,29.93,20,2,28,0.00
2012-8-28,80.8,71.2,63.7,-99.9,-99.9,-99.9,0,0,100,29.99,29.91,22,2,27,0.00
2012-8-29,84.0,71.8,61.7,-99.9,-99.9,-99.9,0,0,100,29.91,29.78,15,1,21,0.00
2012-8-30,79.1,70.9,61.5,-99.9,-99.9,-99.9,0,0,100,29.80,29.72,23,1,28,0.00
2012-8-31,63.2,59.5,57.1,-99.9,-99.9,-99.9,0,0,100,29.91,29.79,26,3,42,0.00
2012-9-1,69.8,60.6,55.2,-99.9,-99.9,-99.9,0,0,100,29.97,29.89,25,2,37,0.00
2012-9-2,81.5,67.3,57.4,-99.9,-99.9,-99.9,0,0,100,29.93,29.86,16,1,19,0.00
2012-9-3,83.9,73.2,63.9,-99.9,-99.9,-99.9,0,0,100,29.93,29.86,13,0,21,0.00
2012-9-4,78.7,68.1,59.3,-99.9,-99.9,-99.9,0,0,100,29.96,29.91,18,0,18,0.00
2012-9-5,69.5,62.9,58.2,-99.9,-99.9,-99.9,0,0,100,29.94,29.88,12,0,15,0.00
2012-9-6,71.8,63.0,56.7,-99.9,-99.9,-99.9,0,0,100,30.03,29.88,22,0,24,0.00
2012-9-7,73.3,63.3,56.0,-99.9,-99.9,-99.9,0,0,100,30.03,29.95,19,1,20,0.00
2012-9-8,73.2,64.6,59.0,-99.9,-99.9,-99.9,0,0,100,30.00,29.92,20,2,26,0.00
2012-9-9,73.9,64.0,57.1,-99.9,-99.9,-99.9,0,0,100,29.94,29.86,22,2,25,0.00
2012-9-10,79.7,66.7,56.4,-99.9,-99.9,-99.9,0,0,100,29.88,29.79,23,2,26,0.00
2012-9-11,75.1,67.8,60.8,-99.9,-99.9,-99.9,0,0,100,29.92,29.78,20,1,25,0.00
2012-9-12,74.5,64.4,57.9,-99.9,-99.9,-99.9,0,0,100,30.02,29.90,16,1,24,0.00
2012-9-13,79.0,68.9,61.5,-99.9,-99.9,-99.9,0,0,100,30.04,29.98,18,1,26,0.00
2012-9-14,74.6,65.7,59.4,-99.9,-99.9,-99.9,0,0,100,30.05,29.98,17,1,22,0.00
2012-9-15,77.1,65.9,57.0,-99.9,-99.9,-99.9,0,0,100,30.04,29.96,15,1,21,0.00
2012-9-16,74.6,65.5,57.4,-99.9,-99.9,-99.9,0,0,100,29.99,29.93,13,0,20,0.00
2012-9-17,68.5,61.0,56.1,-99.9,-99.9,-99.9,0,0,100,29.99,29.94,14,0,16,0.00
2012-9-18,68.9,60.1,53.5,-99.9,-99.9,-99.9,0,0,100,30.04,29.96,18,0,22,0.00
2012-9-19,69.0,61.5,56.2,-99.9,-99.9,-99.9,0,0,100,30.04,29.98,16,1,21,0.00
2012-9-20,73.2,62.7,54.9,-99.9,-99.9,-99.9,0,0,100,30.01,29.93,22,1,30,0.00
2012-9-21,75.0,64.5,56.2,-99.9,-99.9,-99.9,0,0,100,29.94,29.85,15,1,20,0.00
2012-9-22,79.3,67.6,59.6,-99.9,-99.9,-99.9,0,0,100,29.89,29.84,16,1,25,0.00
2012-9-23,78.0,68.9,61.3,-99.9,-99.9,-99.9,0,0,100,29.91,29.84,17,1,31,0.00
2012-9-24,74.8,65.4,57.9,-99.9,-99.9,-99.9,0,0,100,29.91,29.84,18,2,23,0.00
2012-9-25,74.4,65.9,59.8,-99.9,-99.9,-99.9,0,0,100,29.87,29.81,18,1,22,0.00
2012-9-26,72.4,63.1,57.3,-99.9,-99.9,-99.9,0,0,100,29.84,29.78,15,0,18,0.00
2012-9-27,80.3,66.9,56.7,-99.9,-99.9,-99.9,0,0,100,29.88,29.80,17,1,18,0.00
2012-9-28,67.3,63.0,58.4,-99.9,-99.9,-99.9,0,0,100,29.91,29.81,14,0,17,0.00
2012-9-29,77.0,64.8,56.5,-99.9,-99.9,-99.9,0,0,100,29.99,29.89,16,1,22,0.00
2012-9-30,85.8,73.6,62.0,-99.9,-99.9,-99.9,0,0,100,30.03,29.96,18,1,22,0.00
2012-10-1,89.9,78.5,68.8,-99.9,-99.9,-99.9,0,0,100,29.98,29.89,21,0,22,0.00
2012-10-2,92.9,81.6,72.0,-99.9,-99.9,-99.9,0,0,100,29.89,29.79,13,0,20,0.00
2012-10-3,82.7,76.0,66.4,-99.9,-99.9,-99.9,0,0,100,29.96,29.80,14,0,18,0.00
2012-10-4,67.4,64.0,60.4,-99.9,-99.9,-99.9,0,0,100,30.08,29.95,20,1,27,0.00
2012-10-5,66.8,62.2,59.3,-99.9,-99.9,-99.9,0,0,100,30.10,30.02,21,1,26,0.00
2012-10-6,67.4,61.4,56.8,-99.9,-99.9,-99.9,0,0,100,30.02,29.93,21,1,28,0.00
2012-10-7,67.7,60.1,54.7,-99.9,-99.9,-99.9,0,0,100,29.95,29.89,18,1,24,0.00
2012-10-8,64.1,59.5,55.6,-99.9,-99.9,-99.9,0,0,100,29.98,29.93,24,1,24,0.00
2012-10-9,66.1,60.1,55.3,-99.9,-99.9,-99.9,0,0,100,29.97,29.89,16,1,25,0.00
2012-10-10,67.5,60.6,56.6,-99.9,-99.9,-99.9,0,0,100,29.90,29.83,13,1,22,0.00
2012-10-11,59.1,56.6,55.5,-99.9,-99.9,-99.9,0,0,100,29.91,29.80,23,1,30,0.00
2012-10-12,58.1,55.9,54.1,-99.9,-99.9,-99.9,0,0,100,30.16,29.88,6,0,9,0.00
2012-10-13,67.7,59.0,51.7,-99.9,-99.9,-99.9,0,0,100,30.24,30.13,13,1,22,0.00
2012-10-14,71.1,63.4,58.0,-99.9,-99.9,-99.9,0,0,100,30.15,30.03,18,2,22,0.00
2012-10-15,73.8,64.8,58.2,-99.9,-99.9,-99.9,0,0,100,30.04,29.93,18,1,22,0.00
2012-10-16,76.1,69.6,64.6,-99.9,-99.9,-99.9,0,0,100,29.96,29.85,24,4,31,0.00
2012-10-17,78.4,69.5,61.0,-99.9,-99.9,-99.9,0,0,100,29.88,29.81,15,0,17,0.00
2012-10-18,79.7,73.0,67.5,-99.9,-99.9,-99.9,0,0,100,30.00,29.85,20,2,25,0.00
2012-10-19,70.5,66.5,60.9,-99.9,-99.9,-99.9,0,0,100,30.02,29.87,8,0,13,0.00
2012-10-20,67.2,60.9,57.2,-99.9,-99.9,-99.9,0,0,100,29.88,29.75,18,1,22,0.00
2012-10-21,61.6,56.6,53.7,-99.9,-99.9,-99.9,0,0,100,29.85,29.77,16,2,26,0.00
2012-10-22,56.3,54.5,52.5,-99.9,-99.9,-99.9,0,0,100,29.86,29.64,19,2,42,0.00
2012-10-23,56.8,53.2,50.7,-99.9,-99.9,-99.9,0,0,100,29.98,29.86,19,1,24,0.00
2012-10-24,58.4,55.0,51.0,-99.9,-99.9,-99.9,0,0,100,30.14,29.95,20,1,23,0.00
2012-10-25,61.0,56.2,54.1,-99.9,-99.9,-99.9,0,0,100,30.20,30.12,12,0,15,0.00
2012-10-26,66.2,58.0,50.9,-99.9,-99.9,-99.9,0,0,100,30.17,30.04,18,0,18,0.00
2012-10-27,72.3,64.0,57.2,-99.9,-99.9,-99.9,0,0,100,30.04,29.93,21,1,22,0.00
2012-10-28,73.0,66.1,60.3,-99.9,-99.9,-99.9,0,0,100,29.98,29.92,14,0,20,0.00
2012-10-29,69.7,62.9,56.6,-99.9,-99.9,-99.9,0,0,100,30.05,29.98,15,1,20,0.00
2012-10-30,66.6,60.4,55.3,-99.9,-99.9,-99.9,0,0,100,30.02,29.92,14,1,22,0.00
2012-10-31,60.4,59.1,57.7,-99.9,-99.9,-99.9,0,0,100,29.96,29.90,20,1,24,0.00
2012-11-1,62.4,59.4,55.3,-99.9,-99.9,-99.9,0,0,100,29.99,29.92,14,0,18,0.00
2012-11-2,61.1,55.2,49.9,-99.9,-99.9,-99.9,0,0,100,30.02,29.97,18,1,22,0.00
2012-11-3,66.3,58.7,52.2,-99.9,-99.9,-99.9,0,0,100,30.10,30.00,16,0,18,0.00
2012-11-4,70.8,63.1,56.9,-99.9,-99.9,-99.9,0,0,100,30.16,30.08,17,0,22,0.00
2012-11-5,72.7,65.5,60.3,-99.9,-99.9,-99.9,0,0,100,30.11,30.02,20,1,24,0.00
2012-11-6,72.9,65.9,60.6,-99.9,-99.9,-99.9,0,0,100,30.04,29.97,8,0,13,0.00
2012-11-7,63.6,59.5,55.3,-99.9,-99.9,-99.9,0,0,100,29.99,29.85,20,1,29,0.00
2012-11-8,55.3,52.2,48.2,-99.9,-99.9,-99.9,0,0,100,29.88,29.81,43,4,47,0.00
2012-11-9,51.4,47.9,44.2,-99.9,-99.9,-99.9,0,0,100,29.91,29.81,19,1,25,0.00
2012-11-10,53.5,48.9,46.1,-99.9,-99.9,-99.9,0,0,100,30.16,29.90,21,2,26,0.00
2012-11-11,54.1,47.9,42.2,-99.9,-99.9,-99.9,0,0,100,30.30,30.17,11,0,22,0.00
2012-11-12,55.6,49.8,44.3,-99.9,-99.9,-99.9,0,0,100,30.30,30.20,15,0,17,0.00
2012-11-13,60.9,54.5,48.6,-99.9,-99.9,-99.9,0,0,100,30.21,30.05,18,0,21,0.00
2012-11-14,62.0,56.3,51.8,-99.9,-99.9,-99.9,0,0,100,30.07,29.96,16,1,24,0.00
2012-11-15,61.5,57.2,53.8,-99.9,-99.9,-99.9,0,0,100,29.97,29.90,8,0,17,0.00
2012-11-16,58.0,55.9,53.7,-99.9,-99.9,-99.9,0,0,100,29.94,29.80,12,0,16,0.00
2012-11-17,57.9,56.4,54.6,-99.9,-99.9,-99.9,0,0,100,29.94,29.74,18,1,30,0.00
2012-11-18,54.8,53.1,49.9,-99.9,-99.9,-99.9,0,0,100,30.11,29.94,11,0,15,0.00
2012-11-19,59.3,55.0,50.9,-99.9,-99.9,-99.9,0,0,100,30.17,30.09,18,1,20,0.00
2012-11-20,60.5,57.6,55.1,-99.9,-99.9,-99.9,0,0,100,30.10,29.96,22,5,29,0.00
2012-11-21,58.6,56.3,49.7,-99.9,-99.9,-99.9,0,0,100,30.14,29.97,20,1,24,0.00
2012-11-22,56.5,51.4,46.6,-99.9,-99.9,-99.9,0,0,100,30.19,30.11,14,1,19,0.00
2012-11-23,58.7,53.2,48.3,-99.9,-99.9,-99.9,0,0,100,30.21,30.12,22,1,26,0.00
2012-11-24,60.9,55.1,50.7,-99.9,-99.9,-99.9,0,0,100,30.13,29.97,18,0,20,0.00
2012-11-25,59.2,54.4,49.5,-99.9,-99.9,-99.9,0,0,100,29.97,29.87,12,0,16,0.00
2012-11-26,59.3,54.1,50.3,-99.9,-99.9,-99.9,0,0,100,30.01,29.90,14,1,20,0.00
2012-11-27,58.0,54.0,50.2,-99.9,-99.9,-99.9,0,0,100,30.04,29.93,12,0,16,0.00
2012-11-28,57.5,55.2,53.0,-99.9,-99.9,-99.9,0,0,100,29.98,29.76,31,3,45,0.00
2012-11-29,59.1,57.4,55.4,-99.9,-99.9,-99.9,0,0,100,29.97,29.80,26,9,39,0.00
2012-11-30,58.6,57.2,55.5,-99.9,-99.9,-99.9,0,0,100,29.96,29.72,36,3,45,0.00
2012-12-1,58.7,56.8,55.1,-99.9,-99.9,-99.9,0,0,100,29.97,29.82,26,4,38,0.00
2012-12-2,58.9,54.3,47.6,-99.9,-99.9,-99.9,0,0,100,30.04,29.67,56,4,60,0.00
2012-12-3,53.7,49.5,45.0,-99.9,-99.9,-99.9,0,0,100,30.14,30.02,13,0,20,0.00
2012-12-4,56.3,54.1,51.3,-99.9,-99.9,-99.9,0,0,100,30.15,30.08,16,1,26,0.00
2012-12-5,59.4,57.3,55.4,-99.9,-99.9,-99.9,0,0,100,30.11,30.04,13,0,18,0.00
2012-12-6,55.5,54.1,49.4,-99.9,-99.9,-99.9,0,0,100,30.07,30.00,0,0,0,0.00
2012-12-7,54.5,49.4,45.3,-99.9,-99.9,-99.9,0,0,100,30.07,30.00,0,0,0,0.00
2012-12-8,52.0,48.6,45.9,-99.9,-99.9,-99.9,0,0,100,30.04,29.97,12,0,18,0.00
2012-12-9,57.1,51.2,45.8,-99.9,-99.9,-99.9,0,0,100,30.13,30.02,14,0,17,0.00
2012-12-10,59.0,54.6,51.9,-99.9,-99.9,-99.9,0,0,100,30.18,30.04,15,0,21,0.00
2012-12-11,55.3,51.7,48.6,-99.9,-99.9,-99.9,0,0,100,30.04,29.78,20,1,30,0.00
2012-12-12,51.0,48.3,44.2,-99.9,-99.9,-99.9,0,0,100,29.82,29.75,18,2,29,0.00
2012-12-13,48.0,44.3,41.6,-99.9,-99.9,-99.9,0,0,100,29.84,29.77,9,0,15,0.00
2012-12-14,47.9,44.8,41.4,-99.9,-99.9,-99.9,0,0,100,29.94,29.72,9,0,11,0.00
2012-12-15,45.6,43.7,41.0,-99.9,-99.9,-99.9,0,0,100,29.99,29.90,14,0,21,0.00
2012-12-16,52.2,48.3,44.6,-99.9,-99.9,-99.9,0,0,100,30.02,29.94,25,1,28,0.00
2012-12-17,53.2,51.5,46.6,-99.9,-99.9,-99.9,0,0,100,29.99,29.90,22,1,40,0.00
2012-12-18,46.7,43.7,41.1,-99.9,-99.9,-99.9,0,0,100,30.10,29.91,30,4,44,0.00
2012-12-19,46.7,41.6,36.3,-99.9,-99.9,-99.9,0,0,100,30.22,30.09,7,0,16,0.00
2012-12-20,52.0,46.9,40.5,-99.9,-99.9,-99.9,0,0,100,30.13,29.91,29,4,41,0.00
2012-12-21,51.6,50.5,49.4,-99.9,-99.9,-99.9,0,0,100,29.91,29.78,31,8,52,0.00
2012-12-22,50.9,49.8,48.4,-99.9,-99.9,-99.9,0,0,100,30.00,29.75,24,2,35,0.00
2012-12-23,52.1,49.9,48.1,-99.9,-99.9,-99.9,0,0,100,29.99,29.78,32,4,50,0.00
2012-12-24,49.5,47.1,44.3,-99.9,-99.9,-99.9,0,0,100,30.12,29.93,0,0,0,0.00
2012-12-25,47.5,44.6,42.9,-99.9,-99.9,-99.9,0,0,100,30.07,29.68,21,1,37,0.00
2012-12-26,49.0,47.2,45.4,-99.9,-99.9,-99.9,0,0,100,30.01,29.78,25,4,34,0.00
2012-12-27,48.3,45.1,43.1,-99.9,-99.9,-99.9,0,0,100,30.07,29.99,0,0,7,0.00
2012-12-28,44.1,42.5,40.3,-99.9,-99.9,-99.9,0,0,100,30.08,29.95,0,0,9,0.00
2012-12-29,47.1,43.8,41.8,-99.9,-99.9,-99.9,0,0,100,29.98,29.92,0,0,0,0.00
2012-12-30,47.9,43.7,40.3,-99.9,-99.9,-99.9,0,0,100,30.08,29.94,17,0,21,0.00
2012-12-31,46.8,43.2,38.5,-99.9,-99.9,-99.9,0,0,100,30.19,30.08,16,0,21,0.00
2013-1-1,47.7,43.7,40.7,-99.9,-99.9,-99.9,0,0,100,30.19,30.11,18,0,21,0.00